Clines Corners, NM

3:57 PM MST on February 13, 2016 (GMT -0700)
Clines Corner

Weather History for KCQC - October, 2013

Change the Weather History Date:

Sunday, October 6, 2013

  Actual Average (KSAF) Record (KSAF)
Temperature  
Mean Temperature 50 °F -  
Max Temperature 69 °F 79 °F 80 °F (1980)
Min Temperature 32 °F 38 °F 32 °F (1998)
Degree Days  
Heating Degree Days 15    
Moisture  
Dew Point 14 °F    
Average Humidity 29    
Maximum Humidity 54    
Minimum Humidity 11    
Precipitation  
Precipitation 0.00 in - - ()
Sea Level Pressure  
Sea Level Pressure 30.21 in    
Wind  
Wind Speed 9 mph (WNW)    
Max Wind Speed 13 mph    
Max Gust Speed -    
Visibility 10 miles    
Events      
Averages and records for this station are not official NWS values.
T = Trace of Precipitation, MM = Missing Value Source: NWS Daily Summary

Daily Weather History Graph

Daily Weather History Graph

Search for Another Location

Airport or City:

Trip Planner

Search our weather history database for the weather conditions in past years. The results will help you decide how hot, cold, wet, or windy it might be!

Date:

Astronomy

Oct. 06, 2013 Rise Set
Actual Time 7:01 AM MDT 6:39 PM MDT
Civil Twilight 6:36 AM MDT 7:04 PM MDT
Nautical Twilight 6:06 AM MDT 7:33 PM MDT
Astronomical Twilight 5:37 AM MDT 8:03 PM MDT
Moon 8:43 AM MDT (10/6) 7:46 PM MDT (10/6)
Length of Visible Light 12h 28m
Length of Day
11h 37m
Waxing Crescent, 4% of the Moon is Illuminated
Oct 6
Waxing Crescent
Oct 11
First Quarter
Oct 18
Full
Oct 26
Last Quarter
Nov 3
New

Hourly Weather History & Observations

Time (MDT) Temp. Windchill Dew Point Humidity Pressure Visibility Wind Dir Wind Speed Gust Speed Precip Events Conditions
12:53 AM 34.0 °F 26.6 °F 17.1 °F 50% 30.21 in 10.0 mi WNW 9.2 mph - N/A   Clear
1:53 AM 36.0 °F 27.5 °F 17.1 °F 46% 30.20 in 10.0 mi WNW 12.7 mph - N/A   Clear
2:53 AM 34.0 °F 25.0 °F 17.1 °F 50% 30.19 in 10.0 mi NW 12.7 mph - N/A   Clear
3:53 AM 32.0 °F 23.0 °F 17.1 °F 54% 30.20 in 10.0 mi NW 11.5 mph - N/A   Clear
4:53 AM 34.0 °F 26.0 °F 17.1 °F 50% 30.20 in 10.0 mi NW 10.4 mph - N/A   Clear
5:53 AM 32.0 °F 23.6 °F 17.1 °F 54% 30.22 in 10.0 mi WNW 10.4 mph - N/A   Clear
6:53 AM 33.1 °F 24.4 °F 17.1 °F 52% 30.25 in 10.0 mi WNW 11.5 mph - N/A   Clear
7:53 AM 37.0 °F 29.8 °F 18.0 °F 46% 30.27 in 10.0 mi NW 10.4 mph - N/A   Clear
8:53 AM 43.0 °F 38.2 °F 19.0 °F 38% 30.28 in 10.0 mi NW 8.1 mph - N/A   Clear
9:53 AM 51.1 °F - 19.9 °F 29% 30.26 in 10.0 mi WNW 3.5 mph - N/A   Clear
10:53 AM 57.9 °F - 14.0 °F 18% 30.22 in 10.0 mi East 4.6 mph - N/A   Clear
11:53 AM 61.0 °F - 10.9 °F 14% 30.21 in 10.0 mi Variable 4.6 mph - N/A   Clear
12:53 PM 63.0 °F - 12.0 °F 14% 30.22 in 10.0 mi ESE 5.8 mph - N/A   Clear
1:53 PM 64.0 °F - 10.9 °F 13% 30.18 in 10.0 mi Variable 3.5 mph - N/A   Clear
2:53 PM 64.9 °F - 12.0 °F 13% 30.17 in 10.0 mi SSE 4.6 mph - N/A   Clear
3:53 PM 68.0 °F - 14.0 °F 12% 30.16 in 10.0 mi WNW 6.9 mph - N/A   Clear
4:53 PM 66.9 °F - 10.0 °F 11% 30.16 in 10.0 mi West 9.2 mph - N/A   Clear
5:53 PM 64.0 °F - 9.0 °F 12% 30.19 in 10.0 mi West 8.1 mph - N/A   Clear
6:53 PM 55.0 °F - 12.0 °F 18% 30.24 in 10.0 mi West 6.9 mph - N/A   Clear
7:53 PM 50.0 °F - 9.0 °F 19% 30.25 in 10.0 mi SW 8.1 mph - N/A   Clear
8:53 PM 50.0 °F - 8.1 °F 18% 30.24 in 10.0 mi NW 8.1 mph - N/A   Clear
9:53 PM 46.0 °F 43.9 °F 9.0 °F 22% 30.22 in 10.0 mi NW 4.6 mph - N/A   Clear
10:53 PM 48.0 °F - 10.9 °F 22% 30.19 in 10.0 mi North 5.8 mph - N/A   Clear
11:53 PM 48.0 °F - 10.0 °F 22% 30.17 in 10.0 mi Calm Calm - N/A   Clear